DECAYED

STARLINK-2066, 47673 (Decayed)

Orbit data source: Space-Track

STARLINK-2066, 47673 was a payload satellite owned by SpaceX/Seattle (US) in LEO that was launched on Tue, 16 Feb 2021 UTC via an FALCON 9 launch vehicle from the Air Force Eastern Test Range (AFETR). Payload-class satellites include a variety of spacecraft equipped with specific instruments for various scientific and technological missions. These include communications satellites like Starlink; space stations such as the ISS; scientific satellites like the Hubble; Earth observation satellites from companies like Planet Labs, Umbra, and HawkEye 360; GPS; miniature CubeSats for education and research; and military/defense satellites.

Not visible in the next 10 days
Identifier
47673, 2021-012BF
Orbit
Decayed
Country
Flag of USUS
Related business
Manufacturer
SpaceX/Seattle
Mission
Decayed Commercial Communications
Bus & Motor
STARLINK, Unknown motor
Mass
260 kg wet, ~248 kg dry
Launch date (UTC)
2021-02-16 (5 years ago)
Launch vehicle
FALCON 9
Launch site
Air Force Eastern Test Range (AFETR)
Object type
Payload
Rocket body
Debris
Shape & HBR
Box + 1 Pan, 10.1 m
Radar Cross Section
13.562 m², Large (>1 m²)

Expand to show TLE details & history
Last TLE update: 1 year ago

TLE from 1 year ago
0 STARLINK-2066
1 47673U 21012BF  25044.24672050  .12681672  12363-4  70207-3 0  9995
2 47673  53.0387 316.9794 0004849 224.6657 276.6808 16.42151807221514
Epoch: 2025-02-13T05:55Z
TLE epoch observation values (Epoch: 2025-02-13T05:55:16.651Z)
Latitude
30.0772°
Longitude
-121.04245°
Altitude
161.419 km
Speed
7.814 km/s
True Right ascension
07h 25m 12s
True Declination
29° 54' 53"
Sunlit
Object was in full shadow at epoch
Visualization orbit readout
Latitude
Unknown
Longitude
Unknown
Altitude
Unknown
Speed
Unknown
Apparent Right ascension
Unknown
Apparent Declination
Unknown
Sunlit
N/A
Visualization observer readout
Local Sidereal Time
21:25:10
Azimuth
Unknown
Elevation
Unknown
Doppler factor
Unknown
Orbital elements
Apogee altitude
163.544 km
Perigee altitude
157.203 km
Semi-major axis
6,538.511 km
Eccentricity
0.00048
Inclination
53.0387°
RAAN
316.9794°
Arg. of periapsis
224.6657°
True anomaly
276.62561°
Mean anomaly
276.6808°
Eccentric anomaly
276.6532°
Mean motion
4.10511 °/min
Orbital period
87.7 mins
BSTAR
0.00070207
Loading maneuver chart data...
Computing Atmospheric mass density...

Documentation

Showing up to 5 results
|